Regional Weather Roundup
Issued by NWS Lake Charles, LA

Home | Current Version | Previous Version | Text Only | Print | Product List | Glossary On
Versions: 1 2 3 4 5 6 7 8 9 10 11 12 13 14 15 16 17 18 19 20 21 22 23 24 25 26 27 28 29 30 31 32 33 34 35 36 37 38 39 40 41 42 43 44 45 46 47 48 49 50
000
ASUS44 KLCH 290510
RWRLCH
RWRLCH
REGIONAL WEATHER ROUNDUP
NATIONAL WEATHER SERVICE LAKE CHARLES LA
1200 AM CDT WED JUL 29 2015

Note: "fair" indicates few or no clouds below 12,000 feet with no
significant weather and/or obstructions to visibility.


ACROSS SOUTHEAST TEXAS

CITY           SKY/WX    TMP DP  RH WIND       PRES   REMARKS
BEAUMONT       CLEAR     80  77  90 SW5       29.98S
BEAUMONT CITY    N/A     79  76  91 S3        29.99S
ORANGE         CLEAR     81  76  84 CALM      30.00S
JASPER         CLEAR     82  75  79 CALM      30.01S
$$

ACROSS CENTRAL LOUISIANA

CITY           SKY/WX    TMP DP  RH WIND       PRES   REMARKS
LEESVILLE      CLEAR     82  75  79 S6        29.99R
FULLERTON        N/A     78  74  87 CALM      29.98R
ALEXANDRIA INT CLEAR     79  75  87 SE3       29.98R
ESLER FIELD    CLEAR     78  72  81 CALM      30.00R
DERIDDER         N/A     80  75  84 CALM      30.01S
OAKDALE        CLEAR     76  74  94 CALM      30.00S
OPELOUSAS        N/A     78  74  85 CALM      30.00S
$$

ACROSS SOUTHWEST AND SOUTH CENTRAL LOUISIANA

CITY           SKY/WX    TMP DP  RH WIND       PRES   REMARKS
SULPHUR        CLEAR     81  77  88 CALM      30.00S
LAKE CHARLES   CLEAR     81  75  82 CALM      29.99S
CHENNAULT INT  CLEAR     79  76  90 CALM      30.00R
CAMERON PHI    NOT AVBL
DEQUINCY         N/A     78  78  99 CALM      30.00R
JENNINGS         N/A     80  77  88 CALM      30.00R
LAFAYETTE      CLEAR     81  74  79 SW5       30.00S
NEW IBERIA     CLEAR     79  76  90 CALM      30.01R
ABBEVILLE        N/A     77  75  93 CALM      30.00S
PATTERSON      CLEAR     79  73  83 CALM      30.02R
SALT POINT       N/A     85  75  72 CALM      29.99S
$$

SELECTED SITES ACROSS THE REGION

CITY           SKY/WX    TMP DP  RH WIND       PRES   REMARKS
HOUSTON BUSH   PTCLDY    83  76  79 S7        29.99R
HOUSTON HOBBY  PTCLDY    82  77  84 S5        29.99R
GALVESTON      CLEAR     85  77  77 S10       30.00S
COLLEGE STAT   CLEAR     84  74  71 S14       29.98R
CONROE         CLEAR     83  73  72 S7        29.99R
HUNTSVILLE     CLEAR     83  74  74 S8        29.98R
LUFKIN         CLEAR     81  71  71 S5        29.98R
SHREVEPORT     CLEAR     83  70  64 S3        29.98R
MONROE         CLEAR     79  74  84 CALM      30.00R
NATCHEZ MS     CLEAR     81  73  78 CALM      30.01S
BATON ROUGE    CLEAR     82  73  74 SW7       30.00R
N.O. INTL ARPT PTCLDY    83  73  72 SW9       30.01R
SLIDELL        CLEAR     79  76  90 CALM      30.00R
$$

MARINE REPORTS

STATION/POSITION TIME  TEMP    WIND        PRES    VSBY  WAVE
                       AIR SEA DIR/SP/G                  HT/PER
                 (UTC) (F)     (DEG/KT/KT) (MB)    (MI)  (FT/S)
BUOY 30 S HIGH I 0450   86 86  190/ 12/ 14 1014.9F         2/ 6
SEA RIM ST PARK  0500   85     210/ 10/ 12 1016.0F
PORT ARTHUR      0400      90  200/  4/  6 1015.6R
SABINE PASS N    0400   84 90  220/  5/ 10 1015.7R
TEXAS POINT      NOT AVBL
CALCASIEU PASS   0400   86 90  220/ 12/ 14 1014.8R
LK CHARLES BEACH 0400   84 91                N/A
MARSH ISLAND     0400   87     240/  2/  9   N/A           0
FRESH WATER LOCK 0400   84 89  210/  4/  5 1015.8R
AMERADA PASS     NOT AVBL
$$



USA.gov is the U.S. government's official web portal to all federal, state and local government web resources and services.